Regional Weather Roundup
Issued by NWS Jackson, KY

Home | Current Version | Previous Version | Text Only | Print | Product List | Glossary Off
Versions: 1 2 3 4 5 6 7 8 9 10 11 12 13 14 15 16 17 18 19 20 21 22 23 24 25 26 27 28 29 30 31 32 33 34 35 36 37 38 39 40 41 42 43 44 45 46 47 48 49 50

000
ASUS43 KJKL 241610
RWRJKL

EAST KENTUCKY HOURLY WEATHER ROUNDUP
NATIONAL WEATHER SERVICE JACKSON KY
1200 PM EDT SUN MAY 24 2015

NOTE: "FAIR" INDICATES FEW OR NO CLOUDS BELOW 12,000 FEET WITH
NO SIGNIFICANT WEATHER AND/OR OBSTRUCTIONS TO VISIBILITY.

* THESE REPORTS ARE NOT UNDER NWS QUALITY CONTROL AND MAY NOT
  REPORT WEATHER SUCH AS PRECIPITATION AND FOG.

KYZ079-080-083-085-087-088-110-112-115-119-120-241700
...EASTERN KENTUCKY...

CITY           SKY/WX    TMP DP  RH WIND       PRES   REMARKS
JACKSON        SUNNY     76  53  44 CALM      30.35S
LONDON         SUNNY     77  46  33 SW8       30.34S
SOMERSET*      SUNNY     73  54  49 S12       30.33F
MONTICELLO*    SUNNY     78  57  48 S13       30.34F
MIDDLESBORO*   SUNNY     75  54  47 CALM      30.36S
HARLAN APT*    SUNNY     73  46  38 CALM      30.36S
HAZARD APT*    SUNNY     79  50  36 CALM      30.34F
BLACK MTN*       N/A     66  50  55 E1          N/A
PIKEVILLE APT* SUNNY     75  52  43 W3        30.35S
BIG SANDY*     PTSUNNY   77  55  46 W3        30.34S
MOREHEAD APT*  SUNNY     79  52  38 SW10      30.33F
$$

KYZ035-036-041-042-044-050-067-078-099-241700
...CENTRAL KENTUCKY...

CITY           SKY/WX    TMP DP  RH WIND       PRES   REMARKS
MT STERLING*   SUNNY     79  52  38 SW10G17   30.32F
FLEMING/MASON* SUNNY     81  54  39 SW14      30.31F
DANVILLE*      SUNNY     79  52  38 S10G16    30.31F
RICHMOND*      SUNNY     77  48  36 S9G20     30.31F
LEXINGTON      SUNNY     78  52  40 S14       30.29F
FRANKFORT      MOSUNNY   79  52  38 S15G21    30.26F
$$

KYZ091>093-OHZ055-061-077-WVZ005-015-034-035-042-241700
...SOUTHERN OHIO/WEST VIRGINIA...

CITY           SKY/WX    TMP DP  RH WIND       PRES   REMARKS
COVINGTON      CLOUDY    76  54  46 S12G17    30.27F
COLUMBUS       PTSUNNY   77  50  38 S10G18    30.29F
DAYTON         PTSUNNY   77  53  43 SW7       30.28F
WILMINGTON     SUNNY     80  50  34 SW13      30.28F
HUNTINGTON     SUNNY     77  54  44 VRB3      30.31F
CHARLESTON     MOSUNNY   77  51  40 VRB5      30.33S
PINEVILLE*     SUNNY     77  52  41 MISG      30.42S
BECKLEY        SUNNY     74  45  35 W8        30.39F
BLUEFIELD      SUNNY     74  47  38 VRB6      30.42S
$$

VAZ002-007-008-TNZ017-027-036-066-071-241700
...SOUTHWEST VIRGINIA/EAST TENNESSEE...

CITY           SKY/WX    TMP DP  RH WIND       PRES   REMARKS
WISE*          SUNNY     73  43  33 S8        30.41F
JONESVILLE*    SUNNY     73  50  43 E5        30.38S
ABINGDON*      SUNNY     76  49  38 W6        30.39F
BRISTOL        MOSUNNY   76  50  40 SE6       30.36F
KNOXVILLE      MOSUNNY   77  53  43 SW6       30.33F
OAK RIDGE      SUNNY     77  54  44 VRB5      30.35F
CROSSVILLE     MOSUNNY   72  55  55 S13G21    30.36F
NASHVILLE      MOSUNNY   82  59  45 SE12G22   30.23F
$$

...KEY TO REMARKS...
VSB - VISIBILITY IN MILES
WCI - WIND CHILL INDEX
HX  - HEAT INDEX

$$



USA.gov is the U.S. government's official web portal to all federal, state and local government web resources and services.